THY8DT LTFM-LCEN

Flight info

Callsign THY8DT
Flight time 1h 19m
Altitude 37000
Route RATVU1D/35L RATVU UT35 UNEPI UT38 UMDOT UA28 DOREN DCT GIRNE
Aircraft A320/M-SDE3FGHIRWY/LB1

Departure

Time 2026-05-05 09:44
Airport İstanbul Airport (LTFM)

Arrival

Time 2026-05-05 11:03
Airport Ercan International Airport (LCEN)
Time Latitude Longitude Altitude Speed Heading
2026-05-05 09:13 41.25823 28.73509 330 ft 0 kts 107°
2026-05-05 09:32 41.25830 28.73480 332 ft 4 kts 107°
2026-05-05 09:33 41.25837 28.73447 330 ft 2 kts 107°
2026-05-05 09:33 41.25842 28.73418 330 ft 4 kts 86°
2026-05-05 09:33 41.25834 28.73389 330 ft 4 kts 36°
2026-05-05 09:33 41.25812 28.73376 330 ft 4 kts 17°
2026-05-05 09:34 41.25805 28.73373 331 ft 0 kts 17°
2026-05-05 09:37 41.25813 28.73376 330 ft 3 kts 17°
2026-05-05 09:37 41.25848 28.73390 331 ft 7 kts 16°
2026-05-05 09:37 41.25901 28.73370 332 ft 10 kts 311°
2026-05-05 09:37 41.25913 28.73279 331 ft 10 kts 283°
2026-05-05 09:38 41.25977 28.73241 332 ft 12 kts 360°
2026-05-05 09:38 41.26070 28.73240 333 ft 15 kts 359°
2026-05-05 09:38 41.26167 28.73239 330 ft 10 kts
2026-05-05 09:38 41.26218 28.73173 332 ft 13 kts 276°
2026-05-05 09:39 41.26216 28.73044 334 ft 13 kts 269°
2026-05-05 09:39 41.26216 28.72976 334 ft 6 kts 269°
2026-05-05 09:39 41.26216 28.72963 334 ft 2 kts 269°
2026-05-05 09:39 41.26215 28.72931 334 ft 5 kts 269°
2026-05-05 09:40 41.26214 28.72873 334 ft 8 kts 269°
2026-05-05 09:40 41.26213 28.72790 334 ft 11 kts 269°
2026-05-05 09:40 41.26211 28.72677 334 ft 14 kts 269°
2026-05-05 09:40 41.26214 28.72561 334 ft 11 kts 289°
2026-05-05 09:41 41.26266 28.72525 333 ft 8 kts 356°
2026-05-05 09:41 41.26298 28.72525 332 ft 1 kts 359°
2026-05-05 09:41 41.26299 28.72525 332 ft 0 kts 359°
2026-05-05 09:43 41.26339 28.72524 333 ft 30 kts 359°
2026-05-05 09:43 41.26803 28.72511 334 ft 99 kts 359°
2026-05-05 09:43 41.27673 28.72489 337 ft 149 kts 358°
2026-05-05 09:43 41.28728 28.72467 883 ft 152 kts 359°
2026-05-05 09:44 41.29794 28.72446 1587 ft 154 kts
2026-05-05 09:44 41.30881 28.72427 2256 ft 160 kts 359°
2026-05-05 09:44 41.32059 28.72411 2629 ft 179 kts
2026-05-05 09:44 41.33388 28.72406 2981 ft 204 kts
2026-05-05 09:45 41.34894 28.72412 3453 ft 228 kts
2026-05-05 09:45 41.36546 28.72387 4110 ft 244 kts 354°
2026-05-05 09:45 41.38112 28.71482 4965 ft 256 kts 319°
2026-05-05 09:45 41.39000 28.69410 5867 ft 269 kts 286°
2026-05-05 09:46 41.39091 28.66893 6838 ft 277 kts 270°
2026-05-05 09:46 41.38861 28.64325 7753 ft 282 kts 266°
2026-05-05 09:46 41.38565 28.61726 8660 ft 285 kts 267°
2026-05-05 09:46 41.38127 28.59132 9531 ft 296 kts 250°
2026-05-05 09:47 41.36910 28.56861 10331 ft 310 kts 225°
2026-05-05 09:47 41.35007 28.55348 10740 ft 335 kts 198°
2026-05-05 09:47 41.32628 28.54934 11154 ft 352 kts 182°
2026-05-05 09:47 41.30160 28.54904 11849 ft 358 kts 177°
2026-05-05 09:48 41.27707 28.55468 12640 ft 360 kts 159°
2026-05-05 09:48 41.26171 28.56313 13167 ft 361 kts 154°
2026-05-05 09:48 41.23874 28.57690 13964 ft 364 kts 153°
2026-05-05 09:48 41.21565 28.59105 14637 ft 367 kts 153°
2026-05-05 09:49 41.19239 28.60544 15307 ft 371 kts 153°
2026-05-05 09:49 41.16888 28.62000 15953 ft 375 kts 153°
2026-05-05 09:49 41.14512 28.63469 16629 ft 379 kts 153°
2026-05-05 09:49 41.12109 28.64947 17288 ft 383 kts 153°
2026-05-05 09:50 41.09683 28.66436 17921 ft 386 kts 153°
2026-05-05 09:50 41.07234 28.67937 18589 ft 389 kts 154°
2026-05-05 09:50 41.04764 28.69446 19202 ft 392 kts 154°
2026-05-05 09:50 41.02275 28.70961 19811 ft 395 kts 155°
2026-05-05 09:51 40.99767 28.72486 20414 ft 399 kts 155°
2026-05-05 09:51 40.97238 28.74025 20996 ft 402 kts 155°
2026-05-05 09:51 40.94688 28.75575 21554 ft 405 kts 156°
2026-05-05 09:51 40.92113 28.77136 22111 ft 408 kts 156°
2026-05-05 09:52 40.89555 28.78686 22680 ft 412 kts 156°
2026-05-05 09:52 40.86938 28.80274 23265 ft 415 kts 156°
2026-05-05 09:52 40.84307 28.81873 23805 ft 418 kts 156°
2026-05-05 09:52 40.81649 28.83491 24198 ft 424 kts 157°
2026-05-05 09:53 40.78963 28.85125 24648 ft 427 kts 157°
2026-05-05 09:53 40.76254 28.86771 25117 ft 429 kts 157°
2026-05-05 09:53 40.73534 28.88419 25588 ft 432 kts 157°
2026-05-05 09:53 40.70799 28.90069 26050 ft 434 kts 158°
2026-05-05 09:54 40.68044 28.91726 26507 ft 436 kts 158°
2026-05-05 09:54 40.65276 28.93391 26967 ft 438 kts 158°
2026-05-05 09:54 40.62494 28.95066 27444 ft 440 kts 158°
2026-05-05 09:54 40.59703 28.96751 27886 ft 443 kts 157°
2026-05-05 09:55 40.56886 28.98446 28263 ft 447 kts 157°
2026-05-05 09:55 40.54045 29.00152 28662 ft 449 kts 157°
2026-05-05 09:55 40.51194 29.01861 29065 ft 452 kts 158°
2026-05-05 09:55 40.48330 29.03577 29474 ft 454 kts 157°
2026-05-05 09:56 40.45453 29.05303 29877 ft 456 kts 157°
2026-05-05 09:56 40.42560 29.07037 30275 ft 459 kts 157°
2026-05-05 09:56 40.39647 29.08781 30634 ft 461 kts 157°
2026-05-05 09:56 40.36763 29.10508 30963 ft 463 kts 157°
2026-05-05 09:57 40.33823 29.12267 31268 ft 466 kts 157°
2026-05-05 09:57 40.30859 29.14035 31589 ft 469 kts 157°
2026-05-05 09:57 40.27889 29.15802 32026 ft 469 kts 157°
2026-05-05 09:57 40.24920 29.17566 32519 ft 467 kts 157°
2026-05-05 09:58 40.21964 29.19323 33010 ft 467 kts 156°
2026-05-05 09:58 40.19012 29.21075 33508 ft 466 kts 156°
2026-05-05 09:58 40.16066 29.22823 34006 ft 465 kts 156°
2026-05-05 09:58 40.13124 29.24567 34385 ft 465 kts 156°
2026-05-05 09:59 40.10169 29.26317 34709 ft 467 kts 156°
2026-05-05 09:59 40.07205 29.28069 35010 ft 468 kts 156°
2026-05-05 09:59 40.04238 29.29823 35329 ft 469 kts 156°
2026-05-05 09:59 40.01268 29.31578 35633 ft 469 kts 156°
2026-05-05 10:00 39.98296 29.33333 35949 ft 469 kts 156°
2026-05-05 10:00 39.95315 29.35090 36260 ft 470 kts 156°
2026-05-05 10:00 39.92339 29.36843 36555 ft 470 kts 156°
2026-05-05 10:00 39.89360 29.38592 36847 ft 470 kts 157°
2026-05-05 10:01 39.86354 29.40297 37045 ft 471 kts 158°
2026-05-05 10:01 39.83341 29.41951 37079 ft 470 kts 158°
2026-05-05 10:01 39.77317 29.45203 37075 ft 469 kts 158°
2026-05-05 10:02 39.71297 29.48469 37071 ft 469 kts 158°
2026-05-05 10:02 39.65290 29.51752 37070 ft 468 kts 158°
2026-05-05 10:03 39.59262 29.54948 37080 ft 468 kts 160°
2026-05-05 10:03 39.53184 29.57946 37073 ft 468 kts 161°
2026-05-05 10:04 39.47097 29.60914 37068 ft 468 kts 160°
2026-05-05 10:04 39.41051 29.63901 37068 ft 468 kts 160°
2026-05-05 10:05 39.34970 29.66939 37066 ft 469 kts 160°
2026-05-05 10:05 39.28875 29.69967 37070 ft 469 kts 160°
2026-05-05 10:06 39.22780 29.72984 37067 ft 469 kts 160°
2026-05-05 10:06 39.16675 29.75998 37066 ft 470 kts 161°
2026-05-05 10:07 39.10576 29.79007 37068 ft 470 kts 161°
2026-05-05 10:07 39.04471 29.82016 37063 ft 470 kts 161°
2026-05-05 10:08 38.98374 29.85022 37065 ft 469 kts 160°
2026-05-05 10:08 38.92271 29.88021 37055 ft 469 kts 161°
2026-05-05 10:09 38.86165 29.90996 37055 ft 469 kts 161°
2026-05-05 10:09 38.80036 29.93907 37061 ft 470 kts 161°
2026-05-05 10:10 38.73894 29.96796 37059 ft 470 kts 161°
2026-05-05 10:10 38.67758 29.99688 37061 ft 470 kts 161°
2026-05-05 10:11 38.61620 30.02600 37062 ft 470 kts 161°
2026-05-05 10:11 38.55487 30.05509 37062 ft 470 kts 161°
2026-05-05 10:12 38.49340 30.08396 37055 ft 471 kts 161°
2026-05-05 10:12 38.43191 30.11294 37057 ft 471 kts 161°
2026-05-05 10:13 38.37028 30.14191 37066 ft 472 kts 161°
2026-05-05 10:13 38.30893 30.17056 37062 ft 473 kts 161°
2026-05-05 10:14 38.25133 30.21089 37045 ft 476 kts 141°
2026-05-05 10:14 38.20639 30.27216 37044 ft 475 kts 125°
2026-05-05 10:15 38.16728 30.33985 37039 ft 476 kts 125°
2026-05-05 10:15 38.12789 30.40746 37062 ft 476 kts 125°
2026-05-05 10:16 38.08840 30.47511 37044 ft 477 kts 125°
2026-05-05 10:16 38.04887 30.54289 37034 ft 478 kts 125°
2026-05-05 10:17 38.00934 30.61054 37030 ft 477 kts 125°
2026-05-05 10:17 37.96970 30.67819 37031 ft 478 kts 125°
2026-05-05 10:18 37.93014 30.74587 37032 ft 478 kts 125°
2026-05-05 10:18 37.89053 30.81366 37003 ft 479 kts 125°
2026-05-05 10:19 37.85101 30.88097 37005 ft 480 kts 126°
2026-05-05 10:19 37.81103 30.94866 37010 ft 480 kts 126°
2026-05-05 10:20 37.77104 31.01639 37019 ft 481 kts 125°
2026-05-05 10:20 37.73099 31.08430 37009 ft 482 kts 125°
2026-05-05 10:21 37.69086 31.15214 37007 ft 482 kts 126°
2026-05-05 10:21 37.65062 31.21993 37011 ft 483 kts 126°
2026-05-05 10:22 37.61030 31.28769 37024 ft 483 kts 125°
2026-05-05 10:22 37.56991 31.35530 37015 ft 482 kts 125°
2026-05-05 10:23 37.52952 31.42280 37023 ft 482 kts 125°
2026-05-05 10:23 37.48918 31.49033 37008 ft 483 kts 126°
2026-05-05 10:24 37.44870 31.55793 37037 ft 484 kts 125°
2026-05-05 10:24 37.40821 31.62547 37026 ft 484 kts 125°
2026-05-05 10:25 37.36757 31.69292 37029 ft 484 kts 126°
2026-05-05 10:25 37.32720 31.75979 37030 ft 484 kts 126°
2026-05-05 10:26 37.28650 31.82708 37048 ft 483 kts 126°
2026-05-05 10:26 37.24576 31.89414 37043 ft 483 kts 126°
2026-05-05 10:27 37.20497 31.96111 37035 ft 483 kts 126°
2026-05-05 10:27 37.16419 32.02798 37025 ft 482 kts 126°
2026-05-05 10:28 37.12339 32.09474 37049 ft 482 kts 126°
2026-05-05 10:28 37.08262 32.16150 37021 ft 483 kts 127°
2026-05-05 10:29 37.04173 32.22831 37028 ft 483 kts 127°
2026-05-05 10:29 37.00070 32.29505 37033 ft 484 kts 127°
2026-05-05 10:30 36.95964 32.36182 37038 ft 484 kts 127°
2026-05-05 10:30 36.91848 32.42856 37015 ft 485 kts 127°
2026-05-05 10:31 36.87719 32.49547 37011 ft 486 kts 127°
2026-05-05 10:31 36.83582 32.56237 37013 ft 487 kts 127°
2026-05-05 10:32 36.79430 32.62932 37032 ft 488 kts 127°
2026-05-05 10:32 36.75280 32.69619 37025 ft 487 kts 127°
2026-05-05 10:33 36.71134 32.76295 37018 ft 487 kts 127°
2026-05-05 10:33 36.69054 32.79640 36515 ft 490 kts 128°
2026-05-05 10:33 36.66952 32.83013 35591 ft 498 kts 127°
2026-05-05 10:34 36.64804 32.86445 34727 ft 504 kts 127°
2026-05-05 10:34 36.62643 32.89894 34093 ft 506 kts 127°
2026-05-05 10:34 36.60482 32.93345 33427 ft 505 kts 127°
2026-05-05 10:34 36.58326 32.96787 32841 ft 502 kts 126°
2026-05-05 10:35 36.56187 33.00197 32311 ft 499 kts 126°
2026-05-05 10:35 36.54060 33.03590 31817 ft 495 kts 126°
2026-05-05 10:35 36.51978 33.06905 31325 ft 491 kts 125°
2026-05-05 10:35 36.49883 33.10235 30823 ft 488 kts 125°
2026-05-05 10:36 36.47801 33.13542 30333 ft 484 kts 124°
2026-05-05 10:36 36.45735 33.16820 29794 ft 478 kts 126°
2026-05-05 10:36 36.43699 33.20044 28924 ft 469 kts 126°
2026-05-05 10:36 36.41604 33.23101 28083 ft 462 kts 135°
2026-05-05 10:37 36.39126 33.25579 27294 ft 455 kts 147°
2026-05-05 10:37 36.36341 33.27349 26491 ft 447 kts 161°
2026-05-05 10:37 36.33380 33.28343 25875 ft 434 kts 174°
2026-05-05 10:37 36.30420 33.28600 25497 ft 424 kts 185°
2026-05-05 10:38 36.28473 33.28578 25220 ft 423 kts 184°
2026-05-05 10:38 36.24538 33.28543 24637 ft 421 kts 184°
2026-05-05 10:38 36.22597 33.28528 24344 ft 420 kts 184°
2026-05-05 10:38 36.18691 33.28498 23758 ft 420 kts 184°
2026-05-05 10:39 36.16762 33.28483 23541 ft 416 kts 184°
2026-05-05 10:39 36.13864 33.28469 23010 ft 416 kts 183°
2026-05-05 10:39 36.10988 33.28496 22499 ft 413 kts 183°
2026-05-05 10:39 36.08132 33.28552 22133 ft 408 kts 183°
2026-05-05 10:40 36.05299 33.28621 21662 ft 405 kts 182°
2026-05-05 10:40 36.02492 33.28678 21157 ft 403 kts 184°
2026-05-05 10:40 35.99711 33.28645 20741 ft 398 kts 185°
2026-05-05 10:40 35.96961 33.28541 20338 ft 393 kts 186°
2026-05-05 10:41 35.94235 33.28425 19858 ft 392 kts 183°
2026-05-05 10:41 35.91517 33.28757 19437 ft 392 kts 172°
2026-05-05 10:41 35.88857 33.29441 18989 ft 390 kts 171°
2026-05-05 10:41 35.86218 33.30143 18611 ft 386 kts 171°
2026-05-05 10:42 35.81007 33.31562 17681 ft 381 kts 170°
2026-05-05 10:42 35.78435 33.32264 17270 ft 376 kts 170°
2026-05-05 10:42 35.75890 33.32955 16843 ft 373 kts 170°
2026-05-05 10:43 35.73371 33.33636 16435 ft 369 kts 170°
2026-05-05 10:43 35.70877 33.34308 16033 ft 365 kts 170°
2026-05-05 10:43 35.68405 33.34971 15635 ft 362 kts 170°
2026-05-05 10:43 35.65956 33.35628 15238 ft 359 kts 170°
2026-05-05 10:44 35.63523 33.36284 14849 ft 356 kts 170°
2026-05-05 10:44 35.61113 33.36935 14458 ft 353 kts 170°
2026-05-05 10:44 35.58715 33.37585 14067 ft 351 kts 170°
2026-05-05 10:44 35.56345 33.38230 13663 ft 349 kts 170°
2026-05-05 10:45 35.53980 33.38870 13249 ft 346 kts 170°
2026-05-05 10:45 35.51676 33.39496 12878 ft 342 kts 170°
2026-05-05 10:45 35.49364 33.40124 12478 ft 339 kts 169°
2026-05-05 10:45 35.47115 33.40947 12093 ft 338 kts 157°
2026-05-05 10:46 35.45119 33.42448 11697 ft 337 kts 141°
2026-05-05 10:46 35.43533 33.44546 11317 ft 335 kts 124°
2026-05-05 10:46 35.42345 33.46995 10926 ft 333 kts 119°
2026-05-05 10:46 35.41198 33.49448 10533 ft 331 kts 120°
2026-05-05 10:47 35.40054 33.51885 10134 ft 329 kts 120°
2026-05-05 10:47 35.38914 33.54300 9827 ft 324 kts 120°
2026-05-05 10:47 35.37798 33.56647 9678 ft 313 kts 122°
2026-05-05 10:47 35.36456 33.58706 9377 ft 307 kts 137°
2026-05-05 10:48 35.34816 33.60355 9028 ft 304 kts 143°
2026-05-05 10:48 35.33152 33.61936 8693 ft 302 kts 143°
2026-05-05 10:48 35.31499 33.63512 8371 ft 300 kts 143°
2026-05-05 10:48 35.29864 33.65078 8024 ft 298 kts 143°
2026-05-05 10:49 35.28238 33.66631 7676 ft 296 kts 143°
2026-05-05 10:49 35.26622 33.68174 7346 ft 294 kts 143°
2026-05-05 10:49 35.25018 33.69705 7003 ft 292 kts 143°
2026-05-05 10:49 35.23420 33.71228 6664 ft 290 kts 143°
2026-05-05 10:50 35.21814 33.72710 6322 ft 288 kts 149°
2026-05-05 10:50 35.20024 33.73758 5966 ft 284 kts 164°
2026-05-05 10:50 35.18102 33.74236 5594 ft 281 kts 174°
2026-05-05 10:50 35.16175 33.74545 5090 ft 276 kts 178°
2026-05-05 10:51 35.14315 33.74258 4577 ft 268 kts 204°
2026-05-05 10:51 35.12801 33.73038 4045 ft 258 kts 229°
2026-05-05 10:51 35.11901 33.71208 3553 ft 249 kts 255°
2026-05-05 10:51 35.11659 33.69158 3046 ft 241 kts 269°
2026-05-05 10:52 35.11563 33.67127 2590 ft 238 kts 269°
2026-05-05 10:52 35.11460 33.65133 2426 ft 231 kts 268°
2026-05-05 10:52 35.11359 33.63218 2261 ft 223 kts 269°
2026-05-05 10:52 35.11279 33.61372 1943 ft 217 kts 274°
2026-05-05 10:53 35.11770 33.59734 1607 ft 203 kts 311°
2026-05-05 10:53 35.12662 33.58413 1355 ft 201 kts 302°
2026-05-05 10:53 35.13264 33.56675 1704 ft 242 kts 291°
2026-05-05 10:53 35.13834 33.54711 2581 ft 235 kts 291°
2026-05-05 10:54 35.14350 33.52938 2794 ft 212 kts 291°
2026-05-05 10:54 35.14971 33.51369 2779 ft 201 kts 314°
2026-05-05 10:54 35.16138 33.50521 2775 ft 198 kts 351°
2026-05-05 10:54 35.17474 33.50741 2775 ft 199 kts 27°
2026-05-05 10:55 35.18495 33.51874 2771 ft 203 kts 58°
2026-05-05 10:55 35.18947 33.53517 2815 ft 206 kts 75°
2026-05-05 10:55 35.19280 33.55225 2961 ft 209 kts 75°
2026-05-05 10:55 35.19625 33.56955 2998 ft 209 kts 73°
2026-05-05 10:56 35.19971 33.58675 2998 ft 209 kts 75°
2026-05-05 10:56 35.20319 33.60399 2999 ft 209 kts 74°
2026-05-05 10:56 35.20667 33.62118 3001 ft 208 kts 75°
2026-05-05 10:56 35.21015 33.63836 3005 ft 208 kts 74°
2026-05-05 10:57 35.21174 33.65596 2996 ft 211 kts 99°
2026-05-05 10:57 35.20690 33.67294 3008 ft 213 kts 113°
2026-05-05 10:57 35.20047 33.68934 3010 ft 214 kts 115°
2026-05-05 10:57 35.19326 33.70516 2987 ft 217 kts 130°
2026-05-05 10:58 35.18084 33.71521 2992 ft 217 kts 166°
2026-05-05 10:58 35.16601 33.71487 2868 ft 211 kts 203°
2026-05-05 10:58 35.15321 33.70697 2756 ft 206 kts 213°
2026-05-05 10:58 35.14138 33.69770 2612 ft 199 kts 217°
2026-05-05 10:59 35.13294 33.68507 2530 ft 192 kts 248°
2026-05-05 10:59 35.12847 33.66998 2491 ft 184 kts 255°
2026-05-05 10:59 35.12478 33.65526 2329 ft 180 kts 255°
2026-05-05 10:59 35.12117 33.64094 2160 ft 172 kts 256°
2026-05-05 11:00 35.11772 33.62752 1985 ft 158 kts 255°
2026-05-05 11:00 35.11651 33.61501 1833 ft 146 kts 279°
2026-05-05 11:00 35.11961 33.60358 1673 ft 140 kts 294°
2026-05-05 11:00 35.12321 33.59250 1463 ft 140 kts 294°
2026-05-05 11:01 35.12685 33.58169 1295 ft 136 kts 295°
2026-05-05 11:01 35.13037 33.57114 1120 ft 133 kts 293°
2026-05-05 11:01 35.13376 33.56052 942 ft 134 kts 295°
2026-05-05 11:01 35.13730 33.55006 764 ft 133 kts 294°
2026-05-05 11:02 35.14065 33.53961 602 ft 132 kts 294°
2026-05-05 11:02 35.14408 33.52917 461 ft 132 kts 294°
2026-05-05 11:02 35.14734 33.51934 397 ft 113 kts 293°
2026-05-05 11:02 35.14968 33.51217 394 ft 66 kts 291°
2026-05-05 11:03 35.15080 33.50875 391 ft 30 kts 291°
2026-05-05 11:03 35.15117 33.50735 394 ft 11 kts 261°
2026-05-05 11:03 35.15049 33.50664 393 ft 15 kts 200°
2026-05-05 11:03 35.14974 33.50616 393 ft 11 kts 225°
2026-05-05 11:04 35.14972 33.50517 393 ft 14 kts 293°
2026-05-05 11:04 35.14996 33.50443 393 ft 7 kts 278°
2026-05-05 11:04 35.14966 33.50402 393 ft 7 kts 207°
2026-05-05 11:04 35.14952 33.50396 393 ft 2 kts 199°
2026-05-05 11:05 35.14948 33.50394 393 ft 0 kts 200°